STARLINK-11168, 60183

Orbit data source: Space-Track

STARLINK-11168, 60183 is a payload satellite owned by SpaceX/Seattle (US) in LEO that was launched on Wed, 03 Jul 2024 UTC via an FALCON 9 launch vehicle from the Air Force Eastern Test Range (AFETR). Payload-class satellites include a variety of spacecraft equipped with specific instruments for various scientific and technological missions. These include communications satellites like Starlink; space stations such as the ISS; scientific satellites like the Hubble; Earth observation satellites from companies like Planet Labs, Umbra, and HawkEye 360; GPS; miniature CubeSats for education and research; and military/defense satellites.

Loading next visibility...
Identifier
60183, 2024-124A
Orbit
LEO
Country
Flag of USUS
Related business
Manufacturer
SpaceX/Seattle
Mission
Operational Commercial Communications
Bus & Motor
STARLINK V2MD, Unknown motor
Mass
960 kg wet, ~910 kg dry
Launch date (UTC)
2024-07-03 (1 year ago)
Launch vehicle
FALCON 9
Launch site
Air Force Eastern Test Range (AFETR)
Object type
Payload
Rocket body
Debris
Shape & HBR
Box + 2 Pan, 14.5 m
Radar Cross Section
36.964 m², Large (>1 m²)

Expand to show TLE details & history
Last TLE update: 15 hours ago

TLE from 15 hours ago
0 STARLINK-11168
1 60183U 24124A   25260.56291905 -.00002350  00000-0 -14558-4 0  9992
2 60183  53.1579 294.6301 0001196  77.5261 282.5890 15.69692102 70530
Epoch: 2025-09-17T13:30Z
TLE epoch observation values (Epoch: 2025-09-17T13:30:36.205Z)
Latitude
-0.0001°
Longitude
95.2421°
Altitude
360.517 km
Speed
7.694 km/s
True Right ascension
19h 38m 31s
True Declination
0° 00' 00"
Sunlit
Object was in full shadow at epoch
Visualization orbit readout
Latitude
Unknown
Longitude
Unknown
Altitude
Unknown
Speed
Unknown
Apparent Right ascension
Unknown
Apparent Declination
Unknown
Sunlit
N/A
Visualization observer readout
Local Sidereal Time
21:09:38
Azimuth
Unknown
Elevation
Unknown
Doppler factor
Unknown
Orbital elements
Apogee altitude
360.845 km
Perigee altitude
359.233 km
Semi-major axis
6,738.176 km
Eccentricity
0.00012
Inclination
53.1579°
RAAN
294.6301°
Arg. of periapsis
77.5261°
True anomaly
282.57562°
Mean anomaly
282.589°
Eccentric anomaly
282.58231°
Mean motion
3.92401 °/min
Orbital period
91.74 mins
BSTAR
-0.000014558
Loading maneuver chart data...
Computing Atmospheric mass density...
Loading historical data...
Loading historical data...
Loading historical data...
Loading historical data...
Loading historical data...
Loading historical data...
Loading historical data...

Documentation

Showing up to 5 results
|